Вернуться в каталог

STARLINK-36970

АктивенСвязьVLEO
NORAD 68071·PAYLOAD·🇺🇸 United States

Запущен Mar 4, 2026 с Vandenberg Space Force Base

Loading…

Ближайшие Пролёты (ближайшие 24 часа)

TLE

СвежийSource: CelesTrak SupGP

Эпоха: Sep 15, 2026, 03:24 UTC

1 68071C 26042C   26258.14215278  .00056728  00000+0  16755-2 0  2580
2 68071  53.1605  14.8997 0001036  72.4582 347.4649 15.34373582    19

Отслеживайте STARLINK-36970 в реальном времени с AllMySat

Download on the App Store